User: anonymous   Login
Location: Unspecified
(0.0000°N, 0.0000°E)
Time: 00:44:15
(UTC+00:00)
Language:

Vanguard 2 Rocket - Orbit

View from above orbital plane
View from above orbital plane
View from above satellite
View from above satellite

Ground track
Ground track

The orbit data is extracted from the following two-line orbital elements,

1    12U 59001B   17200.76221034 -.00000021 +00000-0 -34427-4 0  9992
2    12 032.9109 112.0988 1668286 244.2539 097.6777 11.44149429400684
Epoch (UTC): 19 July 2017 18:17:34
Eccentricity: 0.1668286
inclination: 32.9109°
perigee height: 553 km
apogee height: 3329 km
right ascension of ascending node: 112.0988°
argument of perigee: 244.2539°
revolutions per day: 11.44149429
mean anomaly at epoch: 97.6777°
orbit number at epoch: 40068

The dashed part of the orbit path shows where the satellite is in the earth's shadow,  

DLR